Location: Baia Mare
(47.6567°N, 23.5850°E)
Time: 21:58:46
(UTC+03:00)

ISS - Pass Details

Date: 02 June 2018
Orbit: 403 x 408 km, 51.6° (Epoch: 26 September)

Event Time Altitude Azimuth Distance (km) Brightness Sun altitude
Rises 22:20:25 0° 293° (WNW) 2,332 1.4 -8.9°
Reaches altitude 10° 22:22:31 10° 295° (WNW) 1,467 0.2 -9.1°
Maximum altitude 22:25:48 74° 21° (NNE) 424 -3.7 -9.5°
Enters shadow 22:28:55 11° 107° (ESE) 1,394 -1.6 -9.8°
